weather.gov     
National Weather Service

Terminal Aerodrome Forecast
NWS Homepage
This page is being discontinued on March 12, 2014.
The same data is available at this site. Please update your bookmarks.
Thank you, and we apologize for the inconvenience.
Please send an email to SR-SRH.Webmaster@noaa.gov with any concerns.


Current Version
Previous Version:    01  02  03  04  05  06  07  08  09  10  11  12  13  14  15  16  17  18  19  20  21  22  23  24  25  26  27  28  29  30  
   31  
[Printable]
036
FTUS46 KHNX 181724
TAFMCE
TAF
KMCE 181724Z 1818/1918 14005KT P6SM SCT060 BKN250
     FM190300 VRB03KT 4SM BR BKN150
     FM190800 12005KT 2SM BR BKN120
     FM191200 10004KT 1SM BR BKN100=




036
FTUS46 KHNX 181724
TAFMCE
TAF
KMCE 181724Z 1818/1918 14005KT P6SM SCT060 BKN250
     FM190300 VRB03KT 4SM BR BKN150
     FM190800 12005KT 2SM BR BKN120
     FM191200 10004KT 1SM BR BKN100=


U.S. Dept. of Commerce
NOAA National Weather Service
1325 East West Highway
Silver Spring, MD 20910
E-mail: w-nws.webmaster@noaa.gov
Page last modified: May 16, 2007
NATIONAL WEATHER SERVICE: for Safety, for Work, for Fun - FOR LIFE